Olean, NY

4:57 PM EST on December 07, 2019 (GMT -0500)
Cattaraugus County-Olean

Weather History for KOLE - September, 2019

Change the Weather History Date:

Tuesday, September 17, 2019

  Actual Average (WUND) Record (WUND)
Temperature  
Mean Temperature 57 °F -  
Max Temperature 68 °F - - (-1)
Min Temperature 46 °F - - (-1)
Degree Days  
Heating Degree Days 8    
Growing Degree Days 7 (Base 50)    
Moisture  
Dew Point 49 °F    
Average Humidity 80    
Maximum Humidity 100    
Minimum Humidity 46    
Precipitation  
Precipitation 0.00 in - - ()
Sea Level Pressure  
Sea Level Pressure 30.22 in    
Wind  
Wind Speed 5 mph ()    
Max Wind Speed 10 mph    
Max Gust Speed -    
Visibility 10.0 miles    
Events      
Averages and records for this station are not official NWS values.
T = Trace of Precipitation, MM = Missing Value Source: Averaged Metar Reports

Daily Weather History Graph

Daily Weather History Graph

Search for Another Location

Airport or City:

Astronomy

Sep. 17, 2019 Rise Set
Actual Time 6:55 AM EDT 7:19 PM EDT
Civil Twilight 6:27 AM EDT 7:48 PM EDT
Nautical Twilight 5:54 AM EDT 8:21 PM EDT
Astronomical Twilight 5:20 AM EDT 8:54 PM EDT
Moon 9:18 PM EDT (9/17) 10:00 AM EDT (9/17)
Length of Visible Light 13h 20m
Length of Day
12h 24m
Waning Gibbous, 89% of the Moon is Illuminated
Sep 17
Waning Gibbous
Sep 21
Last Quarter
Sep 28
New
Oct 5
First Quarter
Oct 13
Full

Hourly Weather History & Observations

Time (EDT) Temp. Windchill Dew Point Humidity Pressure Visibility Wind Dir Wind Speed Gust Speed Precip Events Conditions
12:15 AM 53.6 °F - 53.6 °F 100% 30.17 in 10.0 mi ENE 5.8 mph - N/A   Scattered Clouds
12:35 AM 53.6 °F - 53.6 °F 100% 30.17 in 10.0 mi East 5.8 mph - N/A   Mostly Cloudy
12:55 AM 51.8 °F - 51.8 °F 100% 30.17 in 10.0 mi ENE 4.6 mph - N/A   Scattered Clouds
1:15 AM 51.8 °F - 51.8 °F 100% 30.18 in 10.0 mi East 4.6 mph - N/A   Scattered Clouds
1:35 AM 51.8 °F - 51.8 °F 100% 30.18 in 10.0 mi East 4.6 mph - N/A   Mostly Cloudy
1:55 AM 51.8 °F - 51.8 °F 100% 30.18 in 10.0 mi East 3.5 mph - N/A   Overcast
2:15 AM 51.8 °F - 51.8 °F 100% 30.18 in 10.0 mi East 5.8 mph - N/A   Overcast
2:35 AM 51.8 °F - 51.8 °F 100% 30.18 in 10.0 mi East 5.8 mph - N/A   Overcast
2:55 AM 51.8 °F - 51.8 °F 100% 30.18 in 10.0 mi East 8.1 mph - N/A   Mostly Cloudy
3:15 AM 51.8 °F - 51.8 °F 100% 30.17 in 10.0 mi East 5.8 mph - N/A   Mostly Cloudy
3:35 AM 51.8 °F - 51.8 °F 100% 30.17 in 10.0 mi Calm Calm - N/A   Overcast
3:55 AM 50.0 °F - 50.0 °F 100% 30.17 in 10.0 mi Calm Calm - N/A   Scattered Clouds
4:15 AM 50.0 °F - 50.0 °F 100% 30.17 in 10.0 mi East 4.6 mph - N/A   Scattered Clouds
4:35 AM 48.2 °F - 48.2 °F 100% 30.18 in 10.0 mi Calm Calm - N/A   Clear
4:55 AM 48.2 °F - 48.2 °F 100% 30.18 in 10.0 mi East 3.5 mph - N/A   Clear
5:15 AM 48.2 °F - 48.2 °F 100% 30.18 in 10.0 mi East 4.6 mph - N/A   Clear
5:35 AM 46.4 °F - 46.4 °F 100% 30.18 in 10.0 mi Calm Calm - N/A   Clear
5:55 AM 46.4 °F - 46.4 °F 100% 30.19 in 10.0 mi Calm Calm - N/A   Clear
6:15 AM 46.4 °F - 46.4 °F 100% 30.20 in 10.0 mi Calm Calm - N/A   Clear
6:35 AM 46.4 °F 45.2 °F 46.4 °F 100% 30.20 in 10.0 mi East 3.5 mph - N/A   Clear
6:55 AM 46.4 °F 45.2 °F 46.4 °F 100% 30.21 in 10.0 mi East 3.5 mph - N/A   Clear
7:15 AM 46.4 °F 45.2 °F 46.4 °F 100% 30.21 in 10.0 mi East 3.5 mph - N/A   Clear
7:35 AM 48.2 °F - 48.2 °F 100% 30.22 in 10.0 mi East 3.5 mph - N/A   Clear
7:55 AM 50.0 °F - 50.0 °F 100% 30.23 in 10.0 mi Calm Calm - N/A   Clear
8:15 AM 51.8 °F - 48.2 °F 88% 30.23 in 10.0 mi Calm Calm - N/A   Clear
8:35 AM 53.6 °F - 46.4 °F 77% 30.24 in 10.0 mi East 3.5 mph - N/A   Clear
8:55 AM 53.6 °F - 46.4 °F 77% 30.25 in 10.0 mi East 4.6 mph - N/A   Clear
9:15 AM 55.4 °F - 46.4 °F 72% 30.25 in 10.0 mi ESE 5.8 mph - N/A   Clear
9:35 AM 57.2 °F - 46.4 °F 67% 30.25 in 10.0 mi East 5.8 mph - N/A   Clear
9:55 AM 59.0 °F - 48.2 °F 67% 30.25 in 10.0 mi East 4.6 mph - N/A   Clear
10:15 AM 59.0 °F - 46.4 °F 63% 30.26 in 10.0 mi East 6.9 mph - N/A   Clear
10:35 AM 59.0 °F - 46.4 °F 63% 30.26 in 10.0 mi ENE 9.2 mph - N/A   Clear
10:55 AM 59.0 °F - 44.6 °F 59% 30.26 in 10.0 mi ENE 8.1 mph - N/A   Clear
11:15 AM 60.8 °F - 46.4 °F 59% 30.26 in 10.0 mi ENE 8.1 mph - N/A   Clear
11:35 AM 60.8 °F - 46.4 °F 59% 30.26 in 10.0 mi East 5.8 mph - N/A   Clear
11:55 AM 62.6 °F - 44.6 °F 52% 30.25 in 10.0 mi East 8.1 mph - N/A   Clear
12:15 PM 62.6 °F - 44.6 °F 52% 30.26 in 10.0 mi East 4.6 mph - N/A   Clear
12:35 PM 64.4 °F - 44.6 °F 49% 30.25 in 10.0 mi East 3.5 mph - N/A   Clear
12:55 PM 64.4 °F - 44.6 °F 49% 30.25 in 10.0 mi SE 6.9 mph - N/A   Clear
1:15 PM 64.4 °F - 44.6 °F 49% 30.25 in 10.0 mi ENE 6.9 mph - N/A   Clear
1:35 PM 64.4 °F - 44.6 °F 49% 30.25 in 10.0 mi East 9.2 mph - N/A   Clear
2:15 PM 68.0 °F - 46.4 °F 46% 30.24 in 10.0 mi ESE 5.8 mph - N/A   Clear
2:55 PM 66.2 °F - 46.4 °F 49% 30.22 in 10.0 mi East 4.6 mph - N/A   Clear
3:15 PM 68.0 °F - 46.4 °F 46% 30.22 in 10.0 mi NE 8.1 mph - N/A   Clear
3:35 PM 68.0 °F - 46.4 °F 46% 30.21 in 10.0 mi NNE 9.2 mph - N/A   Clear
3:55 PM 68.0 °F - 46.4 °F 46% 30.21 in 10.0 mi NE 9.2 mph - N/A   Clear
4:15 PM 68.0 °F - 46.4 °F 46% 30.21 in 10.0 mi NNE 9.2 mph - N/A   Clear
4:35 PM 66.2 °F - 50.0 °F 56% 30.21 in 10.0 mi NNE 6.9 mph - N/A   Clear
4:55 PM 66.2 °F - 50.0 °F 56% 30.21 in 10.0 mi NNE 8.1 mph - N/A   Clear
5:15 PM 64.4 °F - 50.0 °F 59% 30.21 in 10.0 mi NE 10.4 mph - N/A   Clear
5:35 PM 64.4 °F - 50.0 °F 59% 30.22 in 10.0 mi North 6.9 mph - N/A   Clear
5:55 PM 62.6 °F - 50.0 °F 63% 30.22 in 10.0 mi NE 6.9 mph - N/A   Clear
6:15 PM 62.6 °F - 50.0 °F 63% 30.23 in 10.0 mi NNE 6.9 mph - N/A   Clear
6:35 PM 60.8 °F - 50.0 °F 68% 30.22 in 10.0 mi NE 5.8 mph - N/A   Clear
6:55 PM 59.0 °F - 50.0 °F 72% 30.22 in 10.0 mi NE 4.6 mph - N/A   Clear
7:15 PM 55.4 °F - 50.0 °F 82% 30.22 in 10.0 mi NE 4.6 mph - N/A   Clear
7:35 PM 55.4 °F - 50.0 °F 82% 30.22 in 10.0 mi NNE 5.8 mph - N/A   Clear
7:55 PM 55.4 °F - 50.0 °F 82% 30.23 in 10.0 mi NNE 6.9 mph - N/A   Clear
8:15 PM 53.6 °F - 50.0 °F 88% 30.24 in 10.0 mi NNE 5.8 mph - N/A   Clear
8:35 PM 53.6 °F - 51.8 °F 94% 30.23 in 10.0 mi NE 9.2 mph - N/A   Clear
8:55 PM 53.6 °F - 51.8 °F 94% 30.24 in 10.0 mi ENE 6.9 mph - N/A   Clear
9:15 PM 53.6 °F - 50.0 °F 88% 30.25 in 10.0 mi ENE 5.8 mph - N/A   Clear
9:55 PM 51.8 °F - 50.0 °F 94% 30.25 in 10.0 mi East 4.6 mph - N/A   Clear
10:15 PM 51.8 °F - 50.0 °F 94% 30.25 in 10.0 mi East 3.5 mph - N/A   Clear
10:35 PM 51.8 °F - 50.0 °F 94% 30.25 in 10.0 mi East 4.6 mph - N/A   Clear
10:55 PM 51.8 °F - 50.0 °F 94% 30.25 in 10.0 mi East 3.5 mph - N/A   Clear
11:15 PM 51.8 °F - 51.8 °F 100% 30.25 in 10.0 mi Calm Calm - N/A   Clear
11:35 PM 50.0 °F - 50.0 °F 100% 30.26 in 10.0 mi Calm Calm - N/A   Clear
11:55 PM 50.0 °F - 50.0 °F 100% 30.26 in 10.0 mi East 3.5 mph - N/A   Clear